Back to catalog

FLOCK 4Q 2

AliveScienceSSO
NORAD 58320·PAYLOAD·🇺🇸 United States

Launched Nov 11, 2023 from Vandenberg Space Force Base

Loading…

Next Passes (next 24 hours)

TLE

FreshSource: CelesTrak SupGP

Epoch: Sep 14, 2026, 20:44 UTC

1 58320C 23174BS  26257.86437500  .00018606  00000+0  29335-3 0  2572
2 58320  97.3817 348.6856 0005932 159.2807 310.5461 15.53533079    18

Track FLOCK 4Q 2 in real time with AllMySat

Download on the App Store